Location: Unspecified
(0.0000°N, 0.0000°E)
Time: 18:01:07
(UTC+00:00)

Envisat - Pass Details

Date: 23 March 2019
Orbit: 764 x 766 km, 98.2° (Epoch: 23 May)

Event Time Altitude Azimuth Distance (km) Brightness Sun altitude
Rises 19:27:33 0° 181° (S) 3,228 6.2 -20.2°
Reaches altitude 10° 19:29:58 10° 187° (S) 2,301 5.5 -20.8°
Maximum altitude 19:34:44 43° 258° (WSW) 1,072 4.2 -22.0°
Drops below altitude 10° 19:39:30 10° 328° (NNW) 2,293 5.9 -23.2°
Sets 19:41:54 0° 335° (NNW) 3,216 6.6 -23.8°
